Location: Bretagne
(43.8474°N, 0.4650°W)
Time: 03:50:02
(UTC+00:00)

Cosmos 1953 - Visible Passes

Search period start: 21 April 2026 00:00
Search period end: 01 May 2026 00:00
Orbit: 471 x 485 km, 82.5° (Epoch: 20 April)

Date Brightness Start Highest point End Pass type
(mag) Time Alt. Az. Time Alt. Az. Time Alt. Az.
21 Apr 4.6 04:34:18 10° NNE 04:37:29 27° ENE 04:40:39 10° SE visible
22 Apr 5.3 04:08:10 10° NNE 04:10:40 17° ENE 04:13:10 10° ESE visible
23 Apr 5.8 03:42:53 10° NE 03:43:47 11° ENE 03:44:42 10° E visible
25 Apr 3.2 04:22:08 10° N 04:25:42 48° E 04:29:14 10° SSE visible
26 Apr 4.4 03:55:41 10° NNE 03:58:55 28° ENE 04:02:06 10° SE visible
27 Apr 5.1 03:29:30 10° NNE 03:32:03 18° ENE 03:34:35 10° ESE visible
28 Apr 5.5 03:04:03 10° NE 03:05:07 11° ENE 03:06:13 10° E visible
29 Apr 2.1 04:10:01 10° N 04:13:41 89° E 04:17:20 10° S visible
30 Apr 3.1 03:43:20 10° N 03:46:55 49° E 03:50:28 10° SSE visible
